Total_Precipitation_Accumulation
0.70 0.76 0.76 0.71 0.72 0.77 0.76 0.71 0.65 0.68 0.74 0.84 0.89 1.04 1.19 1.33 1.50 1.63 1.64 1.63 1.64 1.63 1.60 1.68 1.79 1.91 2.00 2.01 1.96 1.80 1.63 1.55 1.45 1.29 1.06 0.86 0.96 1.05 1.01 0.89 0.79 0.68 0.62
0.70 0.73 0.75 0.67 0.61 0.64 0.64 0.65 0.57 0.55 0.59 0.67 0.80 0.97 1.10 1.17 1.20 1.28 1.35 1.36 1.37 1.41 1.40 1.37 1.48 1.61 1.73 1.88 1.94 1.88 1.84 1.71 1.61 1.54 1.34 1.06 0.94 0.98 1.01 1.04 0.95 0.79 0.72
0.84 0.90 0.83 0.70 0.66 0.64 0.60 0.61 0.56 0.55 0.59 0.64 0.78 0.90 0.95 0.99 1.02 1.00 1.06 1.14 1.16 1.14 1.18 1.16 1.18 1.29 1.42 1.55 1.64 1.71 1.80 1.84 1.79 1.65 1.54 1.34 1.10 1.06 1.09 1.08 1.06 1.08 0.91
1.10 1.06 0.89 0.77 0.70 0.64 0.59 0.53 0.53 0.57 0.61 0.67 0.83 0.91 0.92 0.85 0.93 0.94 0.96 0.99 0.96 0.92 0.95 0.96 0.98 1.02 1.09 1.20 1.36 1.55 1.71 1.80 1.85 1.80 1.67 1.44 1.27 1.22 1.19 1.17 1.20 1.21 1.15
1.05 0.94 0.80 0.68 0.58 0.53 0.56 0.51 0.52 0.58 0.61 0.68 0.74 0.85 0.89 0.85 0.87 0.94 0.92 0.82 0.79 0.79 0.77 0.69 0.70 0.76 0.77 0.82 0.89 1.15 1.39 1.56 1.66 1.73 1.65 1.47 1.27 1.19 1.09 1.11 1.18 1.28 1.30
0.93 0.81 0.64 0.56 0.53 0.48 0.47 0.44 0.43 0.44 0.50 0.56 0.62 0.78 0.90 0.81 0.91 0.89 0.80 0.70 0.67 0.70 0.67 0.61 0.60 0.64 0.58 0.53 0.56 0.76 1.02 1.19 1.35 1.48 1.52 1.38 1.24 1.16 1.17 1.17 1.15 1.15 1.15
0.62 0.58 0.47 0.41 0.39 0.38 0.37 0.38 0.40 0.42 0.45 0.50 0.56 0.71 0.81 0.89 0.83 0.68 0.71 0.68 0.67 0.69 0.72 0.72 0.65 0.61 0.69 0.60 0.55 0.61 0.69 0.80 0.93 1.13 1.30 1.31 1.38 1.28 1.16 1.09 1.07 1.07 1.05
0.52 0.50 0.44 0.39 0.36 0.35 0.34 0.35 0.43 0.44 0.43 0.48 0.54 0.58 0.66 0.79 0.73 0.58 0.61 0.58 0.68 0.75 0.78 0.83 0.84 0.78 0.75 0.81 0.76 0.78 0.74 0.68 0.76 0.68 0.83 1.15 1.26 1.30 1.23 1.18 1.19 1.11 1.03
0.30 0.35 0.34 0.29 0.30 0.34 0.33 0.39 0.43 0.44 0.47 0.49 0.54 0.57 0.63 0.67 0.64 0.55 0.56 0.60 0.74 0.77 0.75 0.84 0.85 0.77 0.83 0.89 0.97 1.02 0.94 0.80 0.95 0.98 0.88 0.95 1.04 1.07 1.11 1.13 1.13 1.07 1.02
0.10 0.14 0.18 0.19 0.23 0.29 0.38 0.44 0.42 0.41 0.46 0.48 0.47 0.47 0.51 0.54 0.58 0.48 0.58 0.69 0.74 0.75 0.76 0.81 0.95 0.86 0.83 0.81 0.86 0.96 0.95 0.84 0.75 0.79 0.75 0.65 0.59 0.67 0.83 0.92 1.09 1.14 1.07
0.02 0.04 0.07 0.11 0.17 0.25 0.33 0.32 0.33 0.36 0.39 0.41 0.44 0.43 0.44 0.51 0.62 0.62 0.67 0.70 0.74 0.79 0.87 0.92 0.89 0.95 0.77 0.73 0.75 0.73 0.79 0.76 0.74 0.80 0.86 0.77 0.67 0.62 0.65 0.68 0.79 0.91 0.99
0.00 0.01 0.02 0.04 0.07 0.12 0.20 0.23 0.26 0.30 0.32 0.32 0.32 0.33 0.37 0.48 0.56 0.58 0.59 0.64 0.72 0.73 0.78 0.77 0.74 0.80 0.64 0.55 0.53 0.59 0.64 0.63 0.66 0.79 0.82 0.80 0.78 0.73 0.68 0.65 0.66 0.71 0.78
0.00 0.00 0.00 0.01 0.02 0.06 0.12 0.17 0.21 0.27 0.29 0.28 0.26 0.28 0.32 0.36 0.44 0.47 0.47 0.46 0.48 0.52 0.51 0.59 0.59 0.56 0.51 0.44 0.48 0.53 0.54 0.54 0.61 0.66 0.69 0.68 0.68 0.70 0.68 0.67 0.65 0.63 0.61
0.00 0.00 0.00 0.01 0.01 0.03 0.06 0.13 0.21 0.24 0.23 0.24 0.26 0.27 0.31 0.34 0.34 0.35 0.39 0.39 0.37 0.42 0.41 0.42 0.41 0.40 0.41 0.42 0.44 0.49 0.54 0.56 0.58 0.58 0.58 0.62 0.62 0.65 0.69 0.67 0.66 0.66 0.67
0.00 0.00 0.00 0.00 0.01 0.02 0.02 0.06 0.13 0.15 0.14 0.18 0.23 0.27 0.31 0.34 0.30 0.27 0.27 0.34 0.40 0.45 0.49 0.42 0.37 0.38 0.41 0.47 0.49 0.46 0.49 0.52 0.52 0.51 0.53 0.54 0.53 0.57 0.60 0.59 0.59 0.60 0.58
0.00 0.00 0.00 0.00 0.01 0.01 0.02 0.03 0.05 0.05 0.07 0.08 0.09 0.13 0.13 0.13 0.13 0.13 0.16 0.21 0.28 0.34 0.48 0.54 0.55 0.60 0.62 0.60 0.57 0.49 0.43 0.42 0.46 0.51 0.51 0.51 0.50 0.49 0.53 0.55 0.53 0.55 0.54
0.00 0.00 0.00 0.00 0.01 0.01 0.02 0.05 0.05 0.03 0.01 0.02 0.02 0.03 0.06 0.08 0.10 0.12 0.13 0.17 0.19 0.25 0.44 0.59 0.59 0.57 0.53 0.50 0.46 0.40 0.35 0.31 0.31 0.37 0.46 0.53 0.53 0.52 0.56 0.58 0.55 0.48 0.46
0.00 0.00 0.00 0.02 0.02 0.02 0.04 0.07 0.13 0.15 0.11 0.04 0.02 0.01 0.03 0.05 0.07 0.10 0.16 0.23 0.22 0.24 0.38 0.45 0.45 0.43 0.36 0.29 0.22 0.17 0.16 0.15 0.16 0.20 0.24 0.32 0.47 0.57 0.64 0.66 0.66 0.65 0.61
0.00 0.01 0.01 0.04 0.04 0.05 0.06 0.10 0.13 0.13 0.10 0.05 0.03 0.02 0.01 0.02 0.02 0.04 0.09 0.16 0.16 0.16 0.18 0.18 0.17 0.18 0.17 0.13 0.10 0.07 0.06 0.06 0.07 0.09 0.13 0.17 0.27 0.39 0.55 0.65 0.67 0.70 0.69
0.00 0.00 0.01 0.03 0.05 0.04 0.05 0.06 0.09 0.08 0.05 0.04 0.04 0.03 0.03 0.04 0.04 0.04 0.05 0.07 0.10 0.09 0.08 0.08 0.07 0.06 0.07 0.06 0.06 0.05 0.05 0.05 0.05 0.08 0.13 0.18 0.27 0.32 0.36 0.45 0.55 0.59 0.56
0.00 0.00 0.00 0.02 0.04 0.04 0.04 0.02 0.03 0.05 0.04 0.03 0.02 0.01 0.02 0.06 0.08 0.06 0.05 0.04 0.06 0.06 0.07 0.06 0.06 0.04 0.04 0.05 0.05 0.05 0.04 0.04 0.05 0.06 0.09 0.15 0.22 0.30 0.35 0.36 0.38 0.41 0.45
0.00 0.00 0.01 0.03 0.05 0.05 0.03 0.03 0.03 0.04 0.03 0.02 0.02 0.01 0.02 0.06 0.07 0.07 0.07 0.06 0.06 0.06 0.05 0.05 0.06 0.06 0.05 0.05 0.06 0.06 0.05 0.05 0.05 0.05 0.06 0.08 0.11 0.16 0.23 0.29 0.34 0.35 0.35
0.00 0.00 0.00 0.02 0.03 0.03 0.03 0.03 0.03 0.04 0.04 0.03 0.02 0.02 0.02 0.04 0.05 0.07 0.08 0.08 0.07 0.07 0.07 0.09 0.10 0.09 0.09 0.10 0.10 0.09 0.08 0.08 0.09 0.08 0.08 0.08 0.08 0.09 0.11 0.14 0.19 0.23 0.27
0.00 0.00 0.01 0.02 0.02 0.02 0.03 0.04 0.04 0.03 0.04 0.03 0.03 0.04 0.04 0.05 0.05 0.05 0.05 0.05 0.05 0.06 0.07 0.08 0.10 0.10 0.12 0.14 0.14 0.14 0.13 0.13 0.11 0.10 0.11 0.13 0.13 0.14 0.14 0.14 0.15 0.18 0.22
0.00 0.00 0.01 0.01 0.02 0.02 0.02 0.02 0.03 0.03 0.03 0.04 0.04 0.04 0.04 0.05 0.06 0.05 0.05 0.06 0.07 0.07 0.07 0.07 0.08 0.10 0.13 0.18 0.19 0.16 0.19 0.18 0.13 0.10 0.09 0.11 0.13 0.14 0.16 0.18 0.20 0.24 0.29
0.00 0.00 0.01 0.01 0.02 0.02 0.02 0.03 0.03 0.04 0.03 0.03 0.04 0.04 0.05 0.05 0.05 0.05 0.06 0.07 0.08 0.07 0.07 0.08 0.09 0.09 0.10 0.16 0.21 0.24 0.21 0.16 0.14 0.14 0.11 0.10 0.13 0.16 0.20 0.23 0.26 0.31 0.35